Wind_Speed
21 24 22 21 19 17 15 7 2 1 11 4 3 4 6 7 8 1 4 6 6 7 5 4 3 11 7 1 4 5 3 3 4 7 2 5 7 7 9 5 6 5 6 5
19 21 26 26 24 24 12 4 1 1 7 5 10 9 9 2 5 9 6 4 10 9 4 4 3 6 6 4 2 3 1 1 3 3 2 2 6 2 7 5 2 6 5 3
19 20 24 25 23 25 14 3 1 2 1 2 7 12 13 8 9 5 7 5 6 7 4 4 4 6 7 15 1 4 5 3 4 2 3 1 2 6 6 2 3 6 5 3
23 21 21 26 27 25 14 1 4 2 3 5 10 4 5 12 12 9 11 4 17 15 11 10 5 7 6 8 8 2 4 4 5 6 8 6 3 8 7 5 5 5 3 12
27 24 24 26 29 26 8 5 3 1 2 2 3 9 18 13 11 4 6 8 4 4 12 17 16 11 1 3 9 12 4 3 5 6 14 13 7 14 13 12 13 14 15 22
31 29 27 26 29 31 5 4 3 4 1 4 4 4 3 3 3 3 5 6 8 13 16 14 12 12 14 13 11 5 2 4 3 10 5 7 9 16 14 11 14 16 13 18
36 33 32 30 32 36 12 8 5 3 3 5 7 4 3 5 7 6 11 11 6 2 13 16 12 10 12 11 11 10 5 2 3 4 4 8 1 3 11 15 17 16 14 11
38 37 35 34 34 39 27 16 7 3 3 8 11 11 11 9 8 11 13 19 14 11 8 5 5 4 5 13 16 16 13 5 3 5 5 6 10 4 6 7 8 15 18 14
41 41 39 37 36 38 33 24 24 4 3 7 11 9 11 6 4 4 9 11 10 6 3 5 6 8 7 6 4 18 16 15 8 5 8 6 0 4 2 4 12 8 12 14
43 43 43 41 39 39 36 19 30 10 3 4 6 5 7 5 3 4 4 4 5 9 4 7 7 6 6 6 7 6 5 7 14 13 10 7 9 3 6 9 5 5 7 6
46 43 43 43 43 42 40 29 32 23 4 5 7 9 6 4 4 5 1 3 2 3 6 7 6 5 5 4 3 7 11 7 6 8 9 15 8 5 13 8 4 4 3 3
43 45 43 43 43 43 43 15 33 33 5 3 14 20 24 24 15 4 4 4 3 1 3 3 5 4 4 5 4 1 6 7 4 6 5 3 5 10 7 3 3 4 2 4
40 40 41 42 42 43 44 27 25 25 3 3 4 10 17 24 30 25 6 4 5 3 3 3 3 5 3 6 5 4 5 5 4 0 7 11 14 12 8 5 6 4 3 5
38 39 38 40 39 39 40 25 27 28 3 4 5 15 21 33 30 25 27 20 15 7 3 5 4 4 5 3 2 6 3 10 6 6 7 7 9 11 8 6 5 5 3 5
34 36 39 37 36 40 35 27 30 35 6 3 3 5 14 15 20 27 27 22 13 8 4 4 8 5 7 3 1 4 5 7 5 6 7 4 5 8 6 5 7 6 7 6
30 28 36 33 31 32 18 2 12 20 9 2 2 4 4 8 22 22 15 12 9 8 5 5 5 14 4 4 3 5 11 7 10 7 2 7 7 4 4 6 6 5 7 8
21 25 26 26 35 25 5 4 11 30 15 2 3 3 4 5 7 6 5 11 3 3 3 5 8 4 6 2 3 3 4 7 6 5 2 3 2 2 4 2 5 3 3 3
25 30 42 36 31 20 9 12 23 29 6 2 2 4 2 3 3 4 4 4 4 4 3 2 3 3 3 4 6 4 2 1 3 4 3 3 2 3 4 2 2 3 3 3
38 38 31 20 7 4 7 20 18 11 2 3 3 2 3 2 1 2 3 2 2 2 2 2 1 2 3 6 3 3 3 1 3 6 5 5 3 5 4 1 1 3 5 6
36 21 7 3 4 24 15 4 2 2 3 3 3 2 3 1 2 1 2 2 2 3 3 1 2 3 6 3 3 5 6 6 3 3 4 4 6 6 6 7 6 7 6 5
4 3 3 6 22 5 1 3 2 2 3 4 4 7 6 3 4 2 1 1 1 1 0 1 2 3 2 4 4 3 4 6 6 7 10 10 7 5 5 5 5 5 6 6
6 14 10 6 2 1 3 4 3 5 4 3 3 3 3 2 2 1 1 2 2 1 1 1 2 2 1 3 7 11 12 14 14 11 7 6 6 6 5 2 2 3 5 13
8 2 5 3 2 4 6 6 3 2 3 3 3 3 2 2 2 2 1 2 1 0 2 2 2 3 4 7 7 8 8 9 5 5 5 6 5 5 5 6 9 8 10 10
2 3 2 3 3 3 3 2 2 1 1 3 3 2 1 1 3 2 3 1 2 2 2 3 2 1 1 1 3 4 5 6 5 9 7 7 8 9 15 14 9 11 9 7
3 3 4 3 1 1 1 1 2 2 2 2 2 2 1 1 4 2 3 3 2 2 3 2 1 2 2 3 3 5 4 2 3 6 6 7 7 9 10 11 11 15 17 14
2 3 2 0 1 2 1 2 2 2 1 0 0 2 2 1 4 3 3 6 5 3 3 2 3 3 2 2 3 2 4 5 8 6 7 8 7 9 11 13 15 16 16 15
3 1 2 3 1 2 2 2 0 0 1 1 1 2 2 2 1 1 3 4 3 2 2 2 4 6 5 5 5 5 2 6 6 7 10 11 11 12 11 10 12 15 15 18
Wind_Direction
239 227 213 206 210 192 174 148 180 176 167 199 223 248 228 229 262 98 269 284 254 274 314 290 292 253 236 72 125 298 5 191 230 237 317 338 267 237 172 200 192 240 275 228
245 224 215 209 199 184 153 156 214 41 183 213 242 260 248 251 275 231 195 245 235 233 299 313 346 327 358 16 111 159 283 30 267 245 320 214 271 268 183 148 128 183 170 273
238 232 218 208 200 185 169 116 165 312 254 221 229 253 275 269 199 232 263 256 256 274 232 214 298 332 334 339 345 135 120 153 187 286 13 12 237 264 230 191 190 157 228 265
229 227 223 209 193 187 172 114 224 181 186 241 236 244 328 277 256 265 202 261 246 255 266 268 251 256 281 258 327 55 106 210 196 220 224 286 314 290 241 236 219 225 257 232
224 219 220 211 197 187 158 148 151 163 177 170 103 226 243 257 270 249 301 242 263 301 255 256 268 279 124 302 352 2 322 257 218 263 255 233 229 241 246 250 253 243 250 261
222 217 215 214 199 179 141 150 117 116 224 183 222 215 255 262 52 346 245 343 275 255 258 265 284 271 268 269 274 276 255 290 210 264 220 230 244 235 222 233 234 224 227 249
220 214 211 211 205 193 186 161 122 119 231 201 212 239 233 238 264 268 277 301 309 2 338 318 277 260 251 245 238 215 234 231 294 305 159 218 274 338 229 218 236 230 244 244
220 214 209 210 206 197 196 180 162 138 226 220 236 242 258 270 266 266 271 280 258 271 318 264 233 229 238 233 221 209 206 201 251 271 264 305 292 207 185 180 247 231 240 246
216 213 211 209 209 202 197 204 194 139 133 224 217 221 224 235 245 284 262 267 266 193 232 255 228 210 203 207 205 212 203 212 198 247 278 280 164 272 154 143 271 243 211 235
214 213 213 210 207 206 196 205 197 179 193 202 172 194 209 178 199 263 301 327 323 198 206 249 266 235 204 219 199 158 188 202 210 217 241 255 235 195 165 183 238 248 224 235
207 211 211 211 209 205 195 205 200 194 215 226 209 196 185 174 176 212 211 339 187 253 218 240 238 234 221 244 198 191 191 193 204 215 225 257 166 148 207 224 199 200 186 210
209 207 210 211 208 206 201 204 201 202 204 267 225 230 233 229 224 180 200 233 265 249 325 357 334 228 177 179 214 179 220 220 202 214 222 301 307 292 233 197 216 206 197 214
210 204 207 207 208 208 205 197 177 184 206 253 240 228 228 235 234 232 229 212 210 206 121 295 315 307 296 187 217 178 225 165 186 165 251 267 280 255 247 218 231 232 204 186
206 204 205 208 208 209 207 194 176 182 138 226 252 235 235 242 235 221 217 237 249 264 198 215 266 271 256 263 228 202 177 154 180 246 277 294 265 249 243 232 248 220 164 188
202 204 203 202 208 207 206 188 181 182 170 175 248 294 236 217 214 216 221 225 226 229 253 248 244 238 251 240 249 214 190 174 186 226 209 178 271 296 248 199 231 200 166 157
197 206 201 201 203 169 139 116 171 173 147 71 277 275 228 220 212 213 212 209 213 210 215 219 220 237 246 233 218 233 206 205 212 240 183 209 244 296 238 229 233 195 184 165
194 198 187 181 146 142 110 151 176 177 172 139 278 263 174 241 247 174 186 193 188 199 216 224 233 234 198 244 218 264 205 235 235 252 352 284 230 272 9 289 36 78 41 27
131 121 120 116 112 104 78 65 141 156 128 157 259 267 289 97 184 170 170 166 174 201 234 247 203 148 213 235 230 228 236 260 301 297 255 275 356 6 38 60 107 155 193 176
114 115 111 94 59 63 102 109 117 153 137 199 217 264 288 26 249 132 143 155 168 163 236 247 185 213 200 223 200 230 199 169 300 315 306 296 263 280 279 254 144 214 224 194
118 115 66 69 111 122 117 71 96 191 200 233 246 212 248 296 246 60 121 177 163 206 194 213 220 248 270 264 240 269 293 279 267 287 289 250 250 230 245 233 227 227 229 187
67 65 64 107 138 111 77 134 185 192 232 210 232 218 226 162 264 129 239 139 71 286 351 320 308 262 292 1 357 1 326 323 304 267 262 248 238 244 245 265 253 227 200 191
105 108 112 136 178 139 136 189 177 208 234 191 208 188 185 148 216 134 176 140 176 210 183 207 256 251 233 2 354 353 355 351 340 347 295 254 246 268 246 255 277 242 167 159
113 105 146 200 170 169 188 198 173 213 203 192 180 175 159 149 197 93 136 67 352 234 8 283 252 320 27 14 357 344 351 353 341 17 35 56 59 47 45 57 44 93 105 126
177 150 170 188 190 236 199 201 194 219 236 193 167 114 171 74 63 72 88 97 200 164 209 239 261 295 273 19 6 342 1 357 1 49 48 58 61 54 49 57 88 93 63 81
187 132 202 202 106 99 44 353 287 212 230 172 120 100 116 103 109 114 127 146 163 246 235 238 211 154 95 60 46 19 9 294 79 78 75 69 70 79 74 67 80 91 93 82
119 109 127 272 86 287 274 211 212 190 184 141 102 128 75 77 127 145 193 143 206 241 217 215 159 158 117 129 116 172 208 126 93 86 86 83 74 85 91 80 76 82 93 96
136 139 129 164 157 203 241 248 321 85 123 143 115 100 170 105 53 196 176 205 221 216 238 221 183 179 180 173 159 190 180 98 89 92 93 95 98 97 91 88 87 89 91 96
Height
745 749 754 758 763 767 770 773 780 772 772 781 777 766 761 760 756 754 756 752 756 751 743 733 724 719 714 715 714 716 723 721 731 727 721 724 717 714 733 729 732 728 713 701
741 743 749 753 758 762 765 770 773 771 771 775 772 767 764 767 758 752 760 759 748 743 753 743 734 726 723 717 713 716 724 730 726 724 728 726 728 720 731 735 741 725 726 717
736 739 744 749 753 757 762 771 778 775 770 767 768 765 761 760 760 763 757 754 756 760 752 753 743 747 731 728 718 721 722 738 735 729 726 728 730 726 723 724 722 722 721 717
731 734 738 743 748 754 760 768 771 766 772 771 766 768 764 757 759 754 753 759 751 748 749 743 747 746 738 737 732 722 725 731 738 736 740 740 733 727 720 729 728 721 714 711
724 728 732 737 744 751 755 762 769 770 768 765 768 765 760 764 762 768 758 751 745 751 752 744 737 740 745 748 740 746 733 727 733 730 719 724 731 727 725 720 720 715 712 701
716 721 726 732 738 743 747 755 759 761 766 762 765 764 762 754 765 761 758 758 755 751 745 747 741 737 736 736 735 742 749 739 734 714 710 719 720 715 712 708 704 702 707 688
707 713 719 725 731 735 740 746 753 762 763 761 758 758 759 761 760 764 756 762 762 750 751 752 741 736 733 730 729 734 743 741 737 718 718 710 692 695 694 698 696 695 688 688
698 705 711 718 724 731 736 741 747 757 760 753 756 759 759 759 760 761 758 747 748 750 752 744 736 734 729 720 721 728 732 736 735 726 714 701 689 693 694 697 688 685 684 680
688 696 703 710 717 725 732 736 741 748 756 749 748 753 755 758 760 756 747 743 741 742 748 743 724 720 712 710 707 707 718 722 733 736 727 708 685 685 686 688 689 678 677 673
678 686 694 702 710 718 725 730 737 744 749 744 746 749 748 750 752 751 749 743 740 735 738 734 732 712 700 698 694 707 717 720 721 716 716 701 683 682 686 693 680 674 675 673
668 677 686 694 702 710 718 723 730 736 740 738 738 738 741 743 745 746 745 745 740 737 731 724 712 711 704 698 687 689 699 706 706 707 708 700 679 684 681 667 673 671 672 676
660 669 678 686 694 703 712 718 724 732 737 734 732 733 732 734 736 742 744 742 740 741 739 731 717 703 702 698 691 696 692 686 687 688 678 678 682 678 669 672 670 668 667 671
654 661 671 679 687 695 702 709 716 728 731 731 732 725 724 728 730 733 740 736 738 741 741 744 731 720 701 692 690 687 693 692 697 700 681 679 674 672 674 670 669 664 665 670
648 656 665 673 681 688 696 699 706 717 723 723 717 714 717 716 722 725 727 729 733 735 737 736 732 725 709 690 676 677 684 689 694 690 685 677 669 670 668 666 667 667 668 668
645 652 659 667 675 683 690 694 699 706 711 714 714 709 707 708 711 714 718 722 728 730 731 728 723 712 710 696 686 682 679 679 679 671 669 673 672 670 667 664 666 663 664 668
642 648 652 663 671 676 685 694 697 700 705 711 717 702 697 698 701 704 707 711 718 722 721 716 710 702 704 684 677 668 666 666 663 661 664 667 666 666 663 663 662 662 663 663
641 646 653 661 668 676 682 688 688 698 708 711 712 701 693 692 693 696 702 704 708 710 705 700 695 692 691 685 675 662 665 666 665 664 666 665 665 664 664 666 666 666 668 669
637 648 655 662 671 677 685 688 689 698 705 708 708 694 688 688 685 686 691 696 702 700 696 691 684 690 689 674 665 665 667 666 663 662 666 665 667 665 665 665 666 667 669 672
649 657 663 670 675 681 689 691 694 699 704 704 699 694 688 687 679 683 687 689 690 692 687 684 685 680 669 660 659 663 664 661 661 663 665 666 667 666 667 667 667 667 668 670
658 663 668 681 683 685 689 695 699 702 700 699 693 687 683 686 682 678 682 686 682 680 682 686 682 673 661 661 661 663 664 663 664 664 662 663 662 662 662 663 663 664 664 668
663 672 679 683 686 688 693 698 699 700 693 687 682 678 678 682 681 676 682 679 681 678 677 674 674 667 661 660 662 666 666 663 662 662 661 662 660 660 660 659 660 660 662 665
670 672 682 686 688 690 693 688 690 687 675 675 672 672 673 675 678 675 681 677 680 675 683 676 673 664 665 667 666 662 661 659 657 656 657 657 657 658 657 657 658 659 661 664
672 674 679 681 681 683 684 687 670 675 671 671 670 668 670 678 676 675 674 681 682 680 674 671 666 665 667 668 669 668 667 666 666 666 662 660 662 661 658 657 660 662 665 667
668 669 673 675 679 672 669 666 666 669 671 669 667 672 667 674 674 676 685 684 678 678 680 674 670 673 672 674 674 673 672 674 672 666 668 667 666 665 664 665 669 669 671 673
666 668 670 667 667 668 668 669 670 668 671 668 668 671 671 678 683 680 685 683 679 674 673 669 670 672 672 672 674 675 677 680 675 673 674 674 672 671 675 677 676 675 676 678
664 668 673 675 672 678 678 674 671 669 669 669 667 668 673 675 676 679 681 677 681 671 670 670 670 672 673 675 677 681 684 679 674 676 677 677 678 678 681 682 681 682 683 684
663 668 667 671 673 677 679 671 667 667 666 662 662 670 664 674 675 673 673 675 666 668 671 668 670 672 674 676 680 683 681 676 677 679 680 681 682 683 684 685 688 688 690 691